| time (UTC) | temp F | wind direction | speed MPH | gust MPH | rain 1hr in | rain 24hr in | rain mn in | humidity % | barometer mb |
| 20260507092450 | 50 | 348 | 4.0 | 8.0 | 0.05 | 0.22 | 0.22 | 99 | 1007.0 |
| 20260507090945 | 49 | 5 | 3.0 | 8.0 | 0.07 | 0.21 | 0.21 | 99 | 1006.4 |
| 20260507085441 | 49 | 9 | 4.0 | 9.0 | 0.09 | 0.19 | 0.19 | 99 | 1006.7 |
| 20260507083938 | 49 | 348 | 4.0 | 11.0 | 0.02 | 0.17 | 0.17 | 99 | 1006.4 |
| 20260507082438 | 51 | 12 | 6.0 | 8.0 | 0.05 | 0.16 | 0.16 | 99 | 1006.3 |
| 20260507080935 | 52 | 352 | 3.0 | 8.0 | 0.09 | 0.15 | 0.15 | 99 | 1006.4 |
| 20260507075434 | 53 | 296 | 3.0 | 9.0 | 0.35 | 0.12 | 0.12 | 99 | 1006.3 |
| 20260507073931 | 53 | 270 | 2.0 | 6.0 | 0.14 | 0.04 | 0.04 | 99 | 1005.7 |
| 20260507072428 | 53 | 336 | 2.0 | 3.0 | 0.00 | 0.01 | 0.01 | 99 | 1005.5 |
| 20260507070924 | 53 | 120 | 1.0 | 2.0 | 0.00 | 0.01 | 0.01 | 99 | 1005.1 |
| 20260507065421 | 53 | 117 | 0.0 | 2.0 | 0.00 | 0.01 | 0.01 | 99 | 1005.1 |
| 20260507063920 | 53 | 10 | 3.0 | 3.0 | 0.00 | 0.01 | 0.01 | 99 | 1005.6 |
| 20260507062416 | 53 | 334 | 2.0 | 3.0 | 0.00 | 0.01 | 0.01 | 99 | 1005.6 |
| 20260507060916 | 52 | 265 | 2.0 | 3.0 | 0.02 | 0.01 | 0.01 | 99 | 1005.3 |
| 20260507055416 | 52 | 66 | 1.0 | 4.0 | 0.00 | 0.00 | 0.00 | 99 | 1005.5 |
| 20260507053913 | 52 | 219 | 3.0 | 5.0 | 0.00 | 0.00 | 0.00 | 99 | 1005.8 |
| 20260507052412 | 53 | 180 | 1.0 | 4.0 | 0.00 | 0.00 | 0.00 | 99 | 1006.2 |
| 20260507050909 | 53 | 350 | 2.0 | 5.0 | 0.00 | 0.00 | 0.00 | 99 | 1006.3 |
| 20260507045404 | 53 | 15 | 1.0 | 4.0 | 0.00 | 0.00 | 0.00 | 99 | 1006.2 |
| 20260507043900 | 53 | 187 | 0.0 | 2.0 | 0.00 | 0.00 | 0.00 | 99 | 1006.5 |
| 20260507042355 | 53 | 277 | 3.0 | 5.0 | 0.00 | 0.00 | 0.00 | 99 | 1006.4 |
| 20260507040852 | 53 | 180 | 0.0 | 5.0 | 0.00 | 0.00 | 0.00 | 99 | 1006.2 |
| 20260507035350 | 54 | 183 | 3.0 | 3.0 | 0.00 | 0.13 | 0.13 | 99 | 1006.6 |
| 20260507033848 | 54 | 169 | 1.0 | 4.0 | 0.00 | 0.13 | 0.13 | 99 | 1006.7 |
| 20260507032344 | 54 | 7 | 2.0 | 2.0 | 0.00 | 0.13 | 0.13 | 99 | 1007.0 |
| 20260507030840 | 54 | 176 | 2.0 | 3.0 | 0.00 | 0.13 | 0.13 | 99 | 1006.7 |
| 20260507025337 | 54 | 34 | 2.0 | 5.0 | 0.00 | 0.13 | 0.13 | 99 | 1006.4 |
| 20260507023834 | 54 | 233 | 0.0 | 4.0 | 0.00 | 0.13 | 0.13 | 99 | 1006.7 |
| 20260507022329 | 54 | 257 | 2.0 | 5.0 | 0.00 | 0.13 | 0.13 | 99 | 1006.8 |
| 20260507020825 | 55 | 99 | 0.0 | 4.0 | 0.00 | 0.13 | 0.13 | 99 | 1006.5 |
| 20260507015322 | 55 | 305 | 3.0 | 11.0 | 0.00 | 0.13 | 0.13 | 99 | 1006.7 |
| 20260507013817 | 54 | 63 | 0.0 | 9.0 | 0.00 | 0.13 | 0.13 | 99 | 1007.0 |
| 20260507012314 | 54 | 214 | 3.0 | 7.0 | 0.00 | 0.13 | 0.13 | 99 | 1006.9 |
| 20260507010814 | 54 | 90 | 5.0 | 7.0 | 0.00 | 0.13 | 0.13 | 99 | 1007.1 |
| 20260507005309 | 54 | 270 | 5.0 | 9.0 | 0.00 | 0.13 | 0.13 | 99 | 1007.4 |
| 20260507003806 | 54 | 263 | 3.0 | 10.0 | 0.00 | 0.13 | 0.13 | 99 | 1007.0 |
| 20260507002306 | 54 | 221 | 2.0 | 11.0 | 0.00 | 0.13 | 0.13 | 99 | 1007.1 |
| 20260507000802 | 54 | 233 | 5.0 | 16.0 | 0.00 | 0.13 | 0.13 | 99 | 1007.1 |
| 20260506235256 | 55 | 199 | 8.0 | 14.0 | 0.00 | 0.13 | 0.13 | 99 | 1007.3 |
| 20260506233754 | 55 | 209 | 5.0 | 10.0 | 0.00 | 0.13 | 0.13 | 99 | 1007.1 |
| 20260506232253 | 54 | 289 | 3.0 | 6.0 | 0.00 | 0.13 | 0.13 | 99 | 1007.1 |
| 20260506230751 | 53 | 194 | 3.0 | 8.0 | 0.02 | 0.13 | 0.13 | 99 | 1007.1 |
| 20260506225248 | 54 | 4 | 2.0 | 6.0 | 0.00 | 0.13 | 0.13 | 99 | 1007.0 |
| 20260506223743 | 53 | 23 | 2.0 | 13.0 | 0.02 | 0.12 | 0.12 | 99 | 1007.0 |
| 20260506222238 | 53 | 219 | 3.0 | 4.0 | 0.07 | 0.11 | 0.11 | 99 | 1006.9 |
| 20260506220737 | 53 | 101 | 3.0 | 9.0 | 0.09 | 0.09 | 0.09 | 99 | 1007.2 |
| 20260506215236 | 53 | 222 | 3.0 | 10.0 | 0.07 | 0.07 | 0.07 | 99 | 1007.5 |
| 20260506213734 | 53 | 270 | 3.0 | 9.0 | 0.00 | 0.06 | 0.06 | 99 | 1007.7 |
| 20260506212230 | 54 | 293 | 2.0 | 9.0 | 0.02 | 0.05 | 0.05 | 99 | 1007.8 |
| 20260506210725 | 54 | 274 | 5.0 | 7.0 | 0.00 | 0.04 | 0.04 | 99 | 1008.0 |
| 20260506205220 | 54 | 197 | 0.0 | 10.0 | 0.02 | 0.04 | 0.04 | 99 | 1008.1 |
| 20260506203718 | 54 | 206 | 3.0 | 7.0 | 0.02 | 0.04 | 0.04 | 98 | 1008.4 |
| 20260506202214 | 54 | 315 | 2.0 | 8.0 | 0.00 | 0.03 | 0.03 | 97 | 1008.1 |
| 20260506200711 | 55 | 265 | 4.0 | 14.0 | 0.00 | 0.03 | 0.03 | 96 | 1008.5 |
| 20260506195207 | 56 | 206 | 7.0 | 12.0 | 0.02 | 0.03 | 0.03 | 96 | 1008.5 |
| 20260506193704 | 56 | 90 | 2.0 | 7.0 | 0.09 | 0.03 | 0.03 | 95 | 1008.5 |
| 20260506192200 | 58 | 10 | 3.0 | 10.0 | 0.00 | 0.01 | 0.01 | 91 | 1008.4 |
| 20260506190656 | 59 | 166 | 9.0 | 15.0 | 0.00 | 0.01 | 0.01 | 87 | 1008.9 |
| 20260506185152 | 60 | 270 | 8.0 | 22.0 | 0.00 | 0.01 | 0.01 | 87 | 1008.8 |
| 20260506183649 | 59 | 225 | 6.0 | 13.0 | 0.00 | 0.01 | 0.01 | 87 | 1009.0 |
| 20260506182145 | 60 | 206 | 4.0 | 13.0 | 0.00 | 0.01 | 0.01 | 86 | 1009.1 |
| 20260506180643 | 60 | 188 | 10.0 | 15.0 | 0.00 | 0.01 | 0.01 | 86 | 1009.1 |
| 20260506175138 | 59 | 180 | 3.0 | 12.0 | 0.00 | 0.01 | 0.01 | 86 | 1009.5 |
| 20260506173637 | 60 | 201 | 12.0 | 13.0 | 0.00 | 0.01 | 0.01 | 85 | 1009.8 |
| 20260506172133 | 61 | 56 | 2.0 | 14.0 | 0.00 | 0.01 | 0.01 | 84 | 1010.0 |
| 20260506170631 | 63 | 232 | 5.0 | 7.0 | 0.00 | 0.01 | 0.01 | 81 | 1009.7 |
| 20260506165127 | 64 | 228 | 4.0 | 12.0 | 0.00 | 0.01 | 0.01 | 80 | 1010.0 |
| 20260506163623 | 62 | 323 | 4.0 | 13.0 | 0.00 | 0.01 | 0.01 | 84 | 1010.2 |
| 20260506162122 | 61 | 315 | 2.0 | 11.0 | 0.00 | 0.01 | 0.01 | 85 | 1010.5 |
| 20260506160619 | 62 | 86 | 2.0 | 13.0 | 0.00 | 0.01 | 0.01 | 83 | 1010.8 |
| 20260506155116 | 64 | 120 | 3.0 | 13.0 | 0.00 | 0.01 | 0.01 | 81 | 1010.9 |
| 20260506152329 | 62 | 250 | 6.0 | 15.0 | 0.00 | 0.01 | 0.01 | 84 | 1011.0 |
| 20260506150826 | 62 | 222 | 12.0 | 18.0 | 0.00 | 0.01 | 0.01 | 83 | 1011.2 |
| 20260506145322 | 61 | 207 | 4.0 | 15.0 | 0.00 | 0.01 | 0.01 | 85 | 1011.2 |
| 20260506143821 | 62 | 196 | 2.0 | 10.0 | 0.00 | 0.01 | 0.01 | 84 | 1011.0 |
| 20260506142319 | 61 | 206 | 3.0 | 9.0 | 0.00 | 0.01 | 0.01 | 86 | 1011.2 |
| 20260506140818 | 61 | 199 | 7.0 | 12.0 | 0.00 | 0.01 | 0.01 | 85 | 1010.8 |
| 20260506135314 | 60 | 341 | 4.0 | 12.0 | 0.00 | 0.01 | 0.01 | 86 | 1010.8 |
| 20260506133810 | 60 | 187 | 5.0 | 17.0 | 0.00 | 0.01 | 0.01 | 87 | 1011.1 |
| 20260506132307 | 61 | 178 | 4.0 | 10.0 | 0.00 | 0.01 | 0.01 | 86 | 1011.1 |
| 20260506130803 | 60 | 213 | 11.0 | 11.0 | 0.00 | 0.01 | 0.01 | 86 | 1011.2 |
| 20260506125304 | 59 | 290 | 0.0 | 10.0 | 0.00 | 0.01 | 0.01 | 88 | 1011.2 |
| 20260506123800 | 60 | 252 | 9.0 | 12.0 | 0.02 | 0.01 | 0.01 | 88 | 1011.1 |
| 20260506122258 | 59 | 215 | 9.0 | 14.0 | 0.00 | 0.00 | 0.00 | 90 | 1011.4 |
| 20260506120756 | 58 | 210 | 3.0 | 13.0 | 0.00 | 0.00 | 0.00 | 92 | 1011.4 |
| 20260506115255 | 57 | 243 | 10.0 | 19.0 | 0.00 | 0.00 | 0.00 | 93 | 1011.4 |
| 20260506113754 | 56 | 204 | 7.0 | 18.0 | 0.00 | 0.00 | 0.00 | 94 | 1011.5 |
| 20260506112251 | 56 | 277 | 3.0 | 19.0 | 0.00 | 0.00 | 0.00 | 94 | 1011.7 |
| 20260506110749 | 55 | 211 | 8.0 | 12.0 | 0.00 | 0.00 | 0.00 | 96 | 1011.5 |
| 20260506105245 | 55 | 251 | 4.0 | 11.0 | 0.00 | 0.00 | 0.00 | 95 | 1011.6 |
| 20260506103743 | 55 | 219 | 3.0 | 13.0 | 0.00 | 0.00 | 0.00 | 96 | 1011.4 |
| 20260506102242 | 55 | 166 | 0.0 | 11.0 | 0.00 | 0.00 | 0.00 | 96 | 1011.5 |
| 20260506100739 | 55 | 227 | 8.0 | 15.0 | 0.00 | 0.00 | 0.00 | 97 | 1011.2 |
| 20260506095237 | 55 | 200 | 11.0 | 14.0 | 0.00 | 0.00 | 0.00 | 97 | 1011.1 |
| 20260506093737 | 55 | 223 | 5.0 | 11.0 | 0.00 | 0.00 | 0.00 | 97 | 1011.2 |